Total_Precipitation_Accumulation
0.01 0.08 0.20 0.28 0.47 1.05 1.12 0.78 0.42 0.26 0.25 0.32 0.36 0.34 0.43 0.50 0.52 0.81 0.40 0.14 0.05 0.02 0.03 0.06 0.09 0.09 0.10 0.13 0.14 0.16 0.15 0.11 0.09 0.08 0.11 0.13 0.11 0.09 0.11 0.13 0.14 0.15 0.15 0.15 0.16 0.17 0.17 0.13 0.11
0.01 0.08 0.21 0.28 0.71 1.32 1.08 0.72 0.37 0.27 0.22 0.34 0.44 0.38 0.51 0.46 0.21 0.18 0.21 0.15 0.07 0.03 0.03 0.04 0.07 0.10 0.10 0.10 0.13 0.16 0.16 0.13 0.11 0.12 0.14 0.14 0.12 0.09 0.09 0.11 0.11 0.11 0.11 0.11 0.11 0.12 0.11 0.09 0.08
0.01 0.06 0.17 0.28 0.74 0.96 0.74 0.49 0.26 0.23 0.17 0.23 0.36 0.31 0.42 0.52 0.30 0.22 0.22 0.18 0.11 0.07 0.06 0.06 0.08 0.09 0.11 0.11 0.11 0.16 0.19 0.17 0.15 0.17 0.17 0.15 0.15 0.12 0.11 0.12 0.13 0.12 0.10 0.08 0.09 0.09 0.08 0.08 0.09
0.01 0.03 0.12 0.26 0.49 0.53 0.39 0.33 0.21 0.20 0.18 0.19 0.29 0.40 0.52 0.41 0.35 0.35 0.30 0.28 0.18 0.12 0.08 0.09 0.12 0.13 0.13 0.11 0.11 0.15 0.20 0.18 0.17 0.18 0.21 0.18 0.20 0.22 0.17 0.12 0.13 0.14 0.11 0.09 0.08 0.08 0.07 0.09 0.11
0.00 0.02 0.09 0.20 0.29 0.33 0.31 0.28 0.21 0.19 0.18 0.24 0.35 0.65 0.85 0.58 0.41 0.40 0.39 0.36 0.30 0.19 0.13 0.13 0.15 0.16 0.16 0.14 0.15 0.15 0.16 0.16 0.14 0.14 0.14 0.14 0.17 0.25 0.20 0.15 0.14 0.14 0.12 0.09 0.08 0.08 0.09 0.10 0.12
0.00 0.01 0.06 0.11 0.17 0.21 0.23 0.20 0.18 0.16 0.19 0.32 0.52 0.78 0.83 0.64 0.62 0.64 0.67 0.57 0.54 0.39 0.27 0.23 0.23 0.21 0.19 0.17 0.18 0.18 0.16 0.14 0.12 0.11 0.10 0.11 0.12 0.14 0.16 0.17 0.16 0.15 0.12 0.09 0.10 0.10 0.09 0.11 0.13
0.00 0.01 0.03 0.05 0.08 0.11 0.15 0.15 0.14 0.14 0.21 0.37 0.59 0.94 0.93 0.89 0.89 0.85 1.00 1.08 0.87 0.61 0.46 0.38 0.30 0.24 0.24 0.24 0.22 0.20 0.18 0.17 0.14 0.14 0.14 0.15 0.14 0.14 0.17 0.19 0.19 0.19 0.17 0.14 0.11 0.12 0.12 0.14 0.14
0.00 0.01 0.02 0.02 0.04 0.08 0.09 0.12 0.12 0.14 0.25 0.36 0.55 0.97 1.16 0.99 1.04 1.07 1.22 1.32 1.22 0.83 0.66 0.53 0.49 0.46 0.37 0.30 0.29 0.28 0.25 0.24 0.22 0.20 0.20 0.19 0.20 0.21 0.25 0.24 0.24 0.25 0.26 0.22 0.19 0.17 0.15 0.17 0.16
0.00 0.00 0.01 0.01 0.03 0.05 0.05 0.10 0.14 0.12 0.17 0.34 0.53 0.82 0.89 0.83 0.93 1.05 1.22 1.35 1.50 1.29 0.91 0.75 0.68 0.65 0.60 0.50 0.44 0.44 0.43 0.39 0.34 0.35 0.35 0.37 0.40 0.45 0.55 0.47 0.49 0.46 0.48 0.45 0.41 0.38 0.34 0.29 0.24
0.00 0.00 0.01 0.01 0.02 0.03 0.05 0.08 0.14 0.12 0.28 0.54 0.67 0.80 0.72 0.83 0.93 1.12 1.25 1.30 1.44 1.51 1.07 0.91 0.77 0.70 0.71 0.80 0.92 0.81 0.71 0.67 0.63 0.72 0.76 0.84 0.91 0.89 0.74 0.76 0.91 1.00 1.13 1.05 0.96 0.93 0.74 0.60 0.54
0.00 0.01 0.01 0.01 0.01 0.02 0.05 0.04 0.10 0.13 0.38 0.88 1.07 1.10 1.00 0.95 1.07 1.30 1.51 1.53 1.40 1.45 1.16 1.02 1.00 0.97 0.89 1.01 1.15 1.13 1.04 1.03 0.94 0.96 1.08 1.18 1.12 1.04 0.98 1.04 1.24 1.34 1.48 1.45 1.62 1.64 1.33 1.29 1.30
0.00 0.00 0.01 0.01 0.01 0.02 0.04 0.05 0.09 0.17 0.43 0.73 1.04 1.03 1.15 1.10 1.18 1.41 1.69 1.82 1.79 1.85 1.55 1.37 1.37 1.26 1.19 1.18 1.28 1.30 1.28 1.19 1.12 1.20 1.23 1.41 1.48 1.41 1.39 1.48 1.51 1.60 1.74 2.05 1.94 2.05 1.95 1.81 1.72
0.00 0.00 0.00 0.00 0.01 0.02 0.04 0.10 0.12 0.21 0.33 0.54 0.79 0.81 0.85 1.14 1.49 1.83 2.15 2.13 2.24 2.34 2.23 1.96 1.66 1.55 1.51 1.60 1.58 1.51 1.49 1.46 1.49 1.59 1.59 1.65 1.82 1.81 1.84 1.78 1.79 1.68 1.88 2.18 2.25 2.15 2.33 2.36 2.17
0.00 0.00 0.00 0.01 0.01 0.03 0.05 0.13 0.19 0.31 0.38 0.46 0.72 0.96 1.00 1.33 1.61 2.14 2.74 2.62 2.41 2.58 2.62 2.41 2.11 1.98 1.98 2.11 2.15 2.00 1.84 1.91 1.96 1.92 1.83 1.87 2.06 2.26 2.30 2.15 2.08 1.94 1.97 2.14 2.26 2.30 2.72 2.59 2.45
0.00 0.00 0.02 0.04 0.06 0.08 0.12 0.27 0.40 0.45 0.42 0.50 0.76 1.11 1.33 1.51 1.82 2.13 2.46 2.71 2.86 2.96 2.85 2.79 2.67 2.51 2.56 2.54 2.52 2.34 2.27 2.13 2.09 2.11 2.16 2.14 2.15 2.38 2.43 2.41 2.26 2.18 2.17 2.28 2.29 2.49 2.71 2.43 2.30
0.01 0.02 0.05 0.08 0.09 0.11 0.17 0.48 0.49 0.41 0.42 0.73 0.93 1.28 1.55 1.65 1.89 2.22 2.49 2.91 3.18 3.22 3.20 3.19 3.07 2.98 2.94 2.92 2.83 2.70 2.58 2.30 2.09 2.07 2.20 2.22 2.24 2.38 2.45 2.26 2.14 2.37 2.46 2.51 2.60 2.67 2.70 2.53 2.43
0.03 0.04 0.07 0.10 0.10 0.10 0.17 0.37 0.49 0.43 0.58 0.86 1.12 1.43 1.73 1.99 2.40 2.80 2.94 2.99 3.35 3.66 3.80 3.78 3.73 3.47 3.22 3.15 3.15 3.17 3.07 2.73 2.41 2.30 2.29 2.28 2.16 2.20 2.34 2.17 2.22 2.43 2.52 2.52 2.32 2.66 2.62 2.57 2.46
0.04 0.05 0.10 0.13 0.13 0.13 0.22 0.35 0.46 0.51 0.66 1.01 1.40 1.67 1.92 2.33 2.81 3.11 3.28 3.49 3.60 3.82 4.19 4.07 3.95 3.95 3.88 3.75 3.51 3.47 3.20 2.90 2.76 2.64 2.58 2.40 2.26 2.25 2.37 2.23 2.31 2.45 2.52 2.46 2.46 2.60 2.61 2.44 2.39
0.05 0.07 0.11 0.15 0.14 0.16 0.32 0.50 0.52 0.66 0.90 1.12 1.42 1.71 1.97 2.27 2.69 3.09 3.13 3.27 3.52 4.00 4.28 4.36 4.52 4.46 4.22 3.86 3.45 3.26 3.11 3.02 2.87 2.64 2.37 2.27 2.25 2.32 2.47 2.34 2.48 2.47 2.31 2.28 2.43 2.56 2.41 2.19 2.35
0.06 0.09 0.13 0.15 0.13 0.15 0.29 0.47 0.58 0.89 1.15 1.17 1.24 1.39 1.61 2.05 2.46 2.74 2.79 2.78 3.10 3.66 4.08 4.17 3.93 3.80 3.69 3.47 3.32 3.26 3.35 3.04 2.75 2.55 2.28 2.09 2.11 2.18 2.14 2.21 2.15 2.18 2.24 2.23 2.28 2.44 2.24 1.89 2.08
0.05 0.06 0.11 0.16 0.15 0.19 0.29 0.58 0.77 1.00 1.12 1.15 1.21 1.29 1.43 1.77 2.12 2.39 2.37 2.41 2.62 2.73 2.97 3.12 3.23 3.06 2.89 2.80 2.80 2.87 2.97 2.69 2.41 2.28 2.15 1.96 1.86 1.82 1.82 1.83 1.94 2.15 2.23 2.18 2.21 2.22 2.09 1.77 1.76
0.06 0.07 0.06 0.08 0.14 0.26 0.38 0.89 1.10 1.01 1.08 1.21 1.21 1.21 1.42 1.74 1.71 1.81 1.91 2.02 2.24 2.31 2.42 2.47 2.48 2.53 2.43 2.39 2.37 2.26 2.17 2.03 1.94 1.92 1.85 1.81 1.73 1.65 1.59 1.60 1.65 1.72 1.78 1.81 1.70 1.81 1.94 1.89 1.71
0.05 0.05 0.06 0.09 0.17 0.28 0.38 0.69 1.04 1.28 1.36 1.18 1.10 1.05 1.25 1.37 1.26 1.29 1.41 1.45 1.60 1.69 1.84 1.96 2.04 2.06 2.04 2.02 1.98 1.94 1.84 1.83 1.78 1.70 1.63 1.56 1.50 1.51 1.45 1.38 1.36 1.31 1.35 1.47 1.49 1.58 1.63 1.67 1.65
0.04 0.06 0.12 0.23 0.41 0.63 0.53 0.64 1.03 1.31 1.46 1.16 1.05 1.02 1.12 1.08 1.04 1.16 1.22 1.20 1.24 1.39 1.52 1.65 1.76 1.76 1.76 1.75 1.74 1.69 1.64 1.64 1.58 1.48 1.45 1.39 1.35 1.27 1.21 1.20 1.22 1.18 1.21 1.29 1.37 1.43 1.39 1.46 1.53
0.06 0.12 0.45 0.80 1.09 1.11 0.71 0.74 1.07 1.05 1.02 0.97 0.96 1.04 1.05 0.96 0.88 0.87 0.91 0.99 1.04 1.13 1.17 1.22 1.35 1.42 1.36 1.33 1.35 1.33 1.34 1.35 1.28 1.21 1.15 1.08 0.99 0.95 0.95 0.91 1.02 1.03 1.11 1.13 1.13 1.21 1.30 1.41 1.49
0.10 0.15 0.50 0.76 0.81 0.91 0.79 1.05 1.37 1.06 0.95 0.87 0.91 1.00 0.97 0.83 0.73 0.69 0.69 0.74 0.78 0.81 0.82 0.85 0.98 1.10 1.14 1.12 1.08 1.00 0.98 0.99 0.94 0.99 0.93 0.87 0.78 0.72 0.77 0.86 0.96 1.01 1.04 1.03 1.06 1.06 1.12 1.26 1.39
0.15 0.17 0.23 0.43 0.47 0.67 0.87 1.14 1.27 0.95 0.89 0.94 1.04 1.05 0.98 0.76 0.59 0.54 0.55 0.57 0.58 0.57 0.62 0.67 0.79 0.90 0.97 0.98 0.91 0.84 0.82 0.81 0.78 0.81 0.85 0.82 0.82 0.71 0.72 0.79 0.86 0.97 1.07 1.10 1.08 1.08 1.16 1.31 1.38
0.15 0.15 0.19 0.36 0.51 0.69 0.79 1.13 1.36 1.21 1.15 1.10 1.14 0.98 0.69 0.52 0.44 0.40 0.39 0.38 0.40 0.43 0.52 0.60 0.68 0.71 0.75 0.80 0.79 0.65 0.69 0.75 0.74 0.72 0.71 0.71 0.71 0.69 0.71 0.76 0.79 0.79 0.84 0.89 0.91 0.98 1.10 1.25 1.32
0.19 0.21 0.28 0.39 0.41 0.60 0.88 1.04 0.96 0.94 0.98 1.07 1.02 0.80 0.54 0.40 0.32 0.32 0.32 0.33 0.35 0.36 0.46 0.56 0.65 0.72 0.74 0.77 0.80 0.69 0.64 0.63 0.62 0.64 0.63 0.63 0.61 0.63 0.66 0.68 0.65 0.62 0.62 0.63 0.69 0.79 0.94 1.01 1.03
0.17 0.19 0.28 0.42 0.40 0.43 0.62 0.73 0.51 0.52 0.58 0.62 0.64 0.54 0.44 0.40 0.30 0.30 0.34 0.36 0.36 0.40 0.47 0.54 0.61 0.68 0.72 0.79 0.86 0.82 0.73 0.67 0.62 0.59 0.58 0.55 0.53 0.56 0.58 0.57 0.56 0.52 0.53 0.60 0.66 0.72 0.79 0.86 0.85